Puyallup, WA

11:43 PM PDT on September 19, 2017 (GMT -0700)
Pierce County - Thun Field

Weather History for KPLU - April, 2014

Change the Weather History Date:

Wednesday, April 23, 2014

  Actual Average (KTCM) Record (KTCM)
Temperature  
Mean Temperature 46 °F -  
Max Temperature 50 °F 58 °F 72 °F (1962)
Min Temperature 41 °F 37 °F 30 °F (2011)
Degree Days  
Heating Degree Days 20    
Moisture  
Dew Point 44 °F    
Average Humidity 93    
Maximum Humidity 100    
Minimum Humidity 76    
Precipitation  
Precipitation 0.25 in - - ()
Sea Level Pressure  
Sea Level Pressure 29.85 in    
Wind  
Wind Speed 4 mph (South)    
Max Wind Speed 9 mph    
Max Gust Speed -    
Visibility 9 miles    
Events Rain    
Averages and records for this station are not official NWS values.
T = Trace of Precipitation, MM = Missing Value Source: NWS Daily Summary

Daily Weather History Graph

Daily Weather History Graph

Search for Another Location

Airport or City:

Trip Planner

Search our weather history database for the weather conditions in past years. The results will help you decide how hot, cold, wet, or windy it might be!

Date:

Astronomy

Apr. 23, 2014 Rise Set
Actual Time 6:06 AM PDT 8:09 PM PDT
Civil Twilight 5:33 AM PDT 8:42 PM PDT
Nautical Twilight 4:53 AM PDT 9:23 PM PDT
Astronomical Twilight 4:08 AM PDT 10:08 PM PDT
Moon 3:05 AM PDT (4/23) 2:01 PM PDT (4/23)
Length of Visible Light 15h 08m
Length of Day
14h 02m
Waning Crescent, 34% of the Moon is Illuminated
Apr 23
Waning Crescent
Apr 28
New
May 6
First Quarter
May 14
Full
May 21
Last Quarter

Hourly Weather History & Observations

Time (PDT) Temp. Windchill Dew Point Humidity Pressure Visibility Wind Dir Wind Speed Gust Speed Precip Events Conditions
12:15 AM 41.0 °F - 41.0 °F 100% 29.90 in 10.0 mi Calm Calm - N/A Rain Light Rain
12:35 AM 42.8 °F 39.3 °F 41.0 °F 93% 29.90 in 8.0 mi South 5.8 mph - N/A Rain Light Rain
12:55 AM 42.8 °F 40.1 °F 41.0 °F 93% 29.91 in 9.0 mi South 4.6 mph - N/A Rain Light Rain
1:15 AM 41.0 °F 39.0 °F 41.0 °F 100% 29.91 in 6.0 mi South 3.5 mph - 0.01 in Rain Light Rain
1:35 AM 41.0 °F 38.0 °F 41.0 °F 100% 29.91 in 9.0 mi South 4.6 mph - 0.02 in Rain Light Rain
1:55 AM 41.0 °F - 41.0 °F 100% 29.90 in 10.0 mi Calm Calm - 0.02 in   Unknown
2:15 AM 41.0 °F 38.0 °F 41.0 °F 100% 29.90 in 10.0 mi SSE 4.6 mph - N/A   Unknown
2:35 AM 41.0 °F 38.0 °F 41.0 °F 100% 29.90 in 10.0 mi South 4.6 mph - N/A Rain Light Rain
2:55 AM 41.0 °F 38.0 °F 41.0 °F 100% 29.90 in 10.0 mi SSW 4.6 mph - N/A   Unknown
3:15 AM 41.0 °F 39.0 °F 41.0 °F 100% 29.90 in 8.0 mi South 3.5 mph - 0.01 in Rain Light Rain
3:35 AM 41.0 °F 38.0 °F 41.0 °F 100% 29.90 in 10.0 mi South 4.6 mph - 0.01 in   Unknown
3:55 AM 41.0 °F 39.0 °F 41.0 °F 100% 29.90 in 10.0 mi South 3.5 mph - 0.01 in   Unknown
4:15 AM 41.0 °F 38.0 °F 41.0 °F 100% 29.90 in 10.0 mi SE 4.6 mph - N/A   Unknown
4:35 AM 41.0 °F 39.0 °F 41.0 °F 100% 29.90 in 10.0 mi SSE 3.5 mph - N/A   Unknown
4:55 AM 41.0 °F - 39.2 °F 93% 29.90 in 10.0 mi Calm Calm - N/A   Unknown
5:15 AM 41.0 °F 37.1 °F 41.0 °F 100% 29.91 in 8.0 mi SSW 5.8 mph - N/A Rain Light Rain
5:35 AM 41.0 °F 38.0 °F 41.0 °F 100% 29.91 in 10.0 mi SSW 4.6 mph - N/A   Unknown
5:55 AM 41.0 °F 36.4 °F 41.0 °F 100% 29.91 in 10.0 mi SSW 6.9 mph - N/A   Unknown
6:15 AM 41.0 °F 37.1 °F 41.0 °F 100% 29.91 in 10.0 mi South 5.8 mph - N/A   Unknown
6:35 AM 41.0 °F 38.0 °F 41.0 °F 100% 29.92 in 10.0 mi South 4.6 mph - N/A   Unknown
6:55 AM 41.0 °F 39.0 °F 41.0 °F 100% 29.92 in 10.0 mi South 3.5 mph - N/A   Unknown
7:15 AM 41.0 °F 39.0 °F 41.0 °F 100% 29.92 in 10.0 mi SSE 3.5 mph - N/A   Unknown
7:35 AM 42.8 °F 41.1 °F 41.0 °F 93% 29.92 in 10.0 mi South 3.5 mph - N/A   Unknown
7:55 AM 42.8 °F 41.1 °F 41.0 °F 93% 29.91 in 10.0 mi SSE 3.5 mph - N/A   Unknown
8:15 AM 44.6 °F 42.2 °F 41.0 °F 87% 29.91 in 10.0 mi South 4.6 mph - N/A   Unknown
8:35 AM 44.6 °F 41.4 °F 41.0 °F 87% 29.91 in 10.0 mi South 5.8 mph - N/A   Unknown
8:55 AM 46.4 °F 45.2 °F 41.0 °F 81% 29.91 in 10.0 mi South 3.5 mph - N/A   Unknown
9:15 AM 48.2 °F - 42.8 °F 82% 29.91 in 10.0 mi SSW 5.8 mph - N/A   Unknown
9:35 AM 48.2 °F - 42.8 °F 82% 29.91 in 10.0 mi SW 3.5 mph - N/A   Unknown
10:35 AM 46.4 °F 43.5 °F 41.0 °F 81% 29.91 in 9.0 mi South 5.8 mph - N/A Rain Light Rain
10:55 AM 46.4 °F 42.9 °F 44.6 °F 93% 29.91 in 9.0 mi South 6.9 mph - N/A Rain Light Rain
11:15 AM 48.2 °F - 41.0 °F 76% 29.91 in 10.0 mi South 9.2 mph - N/A   Unknown
11:35 AM 48.2 °F - 41.0 °F 76% 29.91 in 10.0 mi South 5.8 mph - N/A   Unknown
11:55 AM 48.2 °F - 41.0 °F 76% 29.92 in 10.0 mi South 8.1 mph - N/A   Unknown
12:15 PM 48.2 °F - 41.0 °F 76% 29.91 in 10.0 mi South 6.9 mph - N/A   Unknown
12:35 PM 48.2 °F - 42.8 °F 82% 29.92 in 10.0 mi South 5.8 mph - N/A   Unknown
12:55 PM 48.2 °F - 42.8 °F 82% 29.91 in 10.0 mi SW 4.6 mph - N/A Rain Light Rain
1:15 PM 48.2 °F - 41.0 °F 76% 29.91 in 10.0 mi SSW 5.8 mph - N/A   Unknown
1:35 PM 48.2 °F - 41.0 °F 76% 29.90 in 10.0 mi SSW 3.5 mph - N/A   Unknown
1:55 PM 48.2 °F - 42.8 °F 82% 29.90 in 10.0 mi SW 3.5 mph - N/A   Unknown
2:15 PM 48.2 °F - 44.6 °F 87% 29.90 in 8.0 mi Calm Calm - N/A Rain Light Rain
2:35 PM 50.0 °F - 44.6 °F 82% 29.89 in 10.0 mi South 9.2 mph - N/A   Unknown
2:55 PM 50.0 °F - 44.6 °F 82% 29.89 in 10.0 mi SSW 6.9 mph - N/A   Unknown
3:15 PM 48.2 °F - 44.6 °F 87% 29.87 in 8.0 mi South 3.5 mph - N/A Rain Light Rain
3:35 PM 48.2 °F - 44.6 °F 87% 29.87 in 10.0 mi Calm Calm - N/A   Unknown
3:55 PM 50.0 °F - 44.6 °F 82% 29.86 in 10.0 mi Calm Calm - N/A   Unknown
4:15 PM 48.2 °F - 46.4 °F 93% 29.85 in 9.0 mi Calm Calm - 0.01 in Rain Light Rain
4:35 PM 48.2 °F - 46.4 °F 93% 29.84 in 7.0 mi Calm Calm - 0.02 in Rain Light Rain
4:55 PM 48.2 °F - 48.2 °F 100% 29.83 in 9.0 mi SSE 3.5 mph - 0.03 in Rain Light Rain
5:15 PM 48.2 °F - 46.4 °F 93% 29.82 in 10.0 mi SSE 4.6 mph - 0.01 in Rain Light Rain
5:35 PM 48.2 °F - 46.4 °F 93% 29.81 in 10.0 mi SSE 4.6 mph - 0.01 in Rain Light Rain
5:55 PM 50.0 °F - 46.4 °F 87% 29.80 in 9.0 mi South 5.8 mph - 0.01 in Rain Light Rain
6:15 PM 48.2 °F - 48.2 °F 100% 29.79 in 9.0 mi Calm Calm - N/A Rain Light Rain
6:35 PM 48.2 °F - 48.2 °F 100% 29.78 in 10.0 mi Calm Calm - 0.01 in   Unknown
6:55 PM 48.2 °F - 48.2 °F 100% 29.77 in 10.0 mi Calm Calm - 0.01 in   Unknown
7:15 PM 48.2 °F - 48.2 °F 100% 29.76 in 9.0 mi Calm Calm - N/A Rain Light Rain
7:55 PM 48.2 °F - 48.2 °F 100% 29.75 in 9.0 mi Calm Calm - 0.01 in Rain Light Rain
8:15 PM 48.2 °F - 48.2 °F 100% 29.73 in 8.0 mi Calm Calm - 0.01 in Rain Light Rain
8:35 PM 48.2 °F - 48.2 °F 100% 29.72 in 10.0 mi Calm Calm - 0.02 in Rain Light Rain
8:55 PM 48.2 °F - 48.2 °F 100% 29.71 in 10.0 mi Calm Calm - 0.02 in   Unknown
9:15 PM 48.2 °F - 48.2 °F 100% 29.71 in 10.0 mi Calm Calm - N/A Rain Light Rain
9:35 PM 48.2 °F - 48.2 °F 100% 29.71 in 7.0 mi Calm Calm - 0.01 in Rain Light Rain
9:55 PM 46.4 °F - 46.4 °F 100% 29.69 in 8.0 mi Calm Calm - 0.04 in Rain Light Rain
10:15 PM 46.4 °F - 46.4 °F 100% 29.69 in 7.0 mi Calm Calm - 0.01 in Rain Light Rain
10:35 PM 48.2 °F - 48.2 °F 100% 29.68 in 6.0 mi SSE 6.9 mph - 0.03 in Rain Light Rain
10:55 PM 48.2 °F - 46.4 °F 93% 29.67 in 7.0 mi South 6.9 mph - 0.05 in Rain Light Rain
11:15 PM 48.2 °F - 48.2 °F 100% 29.67 in 7.0 mi SSE 9.2 mph - 0.01 in Rain Light Rain
11:35 PM 48.2 °F - 48.2 °F 100% 29.67 in 7.0 mi SSE 9.2 mph - 0.03 in Rain Light Rain
11:55 PM 48.2 °F - 48.2 °F 100% 29.67 in 5.0 mi South 9.2 mph - 0.05 in Rain Light Rain